Lincoln, IL

7:05 AM CDT on May 25, 2017 (GMT -0500)
Lincoln

Weather History for KAAA - November, 2011

Change the Weather History Date:

Wednesday, November 2, 2011

  Actual Average (KSPI) Record (KSPI)
Temperature  
Mean Temperature 60 °F -  
Max Temperature 71 °F 57 °F 82 °F (2016)
Min Temperature 50 °F 40 °F 13 °F (1951)
Degree Days  
Heating Degree Days 4    
Growing Degree Days 10 (Base 50)    
Moisture  
Dew Point 41 °F    
Average Humidity 52    
Maximum Humidity 67    
Minimum Humidity 33    
Precipitation  
Precipitation 0.00 in - - ()
Sea Level Pressure  
Sea Level Pressure 30.01 in    
Wind  
Wind Speed 11 mph (South)    
Max Wind Speed 17 mph    
Max Gust Speed 23 mph    
Visibility 10 miles    
Events      
Averages and records for this station are not official NWS values.
T = Trace of Precipitation, MM = Missing Value Source: NWS Daily Summary

Daily Weather History Graph

Daily Weather History Graph

Search for Another Location

Airport or City:

Trip Planner

Search our weather history database for the weather conditions in past years. The results will help you decide how hot, cold, wet, or windy it might be!

Date:

Astronomy

Nov. 02, 2011 Rise Set
Actual Time 7:27 AM CDT 5:53 PM CDT
Civil Twilight 6:59 AM CDT 6:21 PM CDT
Nautical Twilight 6:27 AM CDT 6:53 PM CDT
Astronomical Twilight 5:55 AM CDT 7:25 PM CDT
Moon 1:47 PM CDT (11/2) No Moon Set
Length of Visible Light 11h 22m
Length of Day
10h 26m
Waxing Crescent, 50% of the Moon is Illuminated
Nov 2
Waxing Crescent
Nov 10
Full
Nov 18
Last Quarter
Nov 25
New
Dec 2
First Quarter

Hourly Weather History & Observations

Time (CDT) Temp. Dew Point Humidity Pressure Visibility Wind Dir Wind Speed Gust Speed Precip Events Conditions
12:15 AM 51.8 °F 37.4 °F 58% 30.09 in 10.0 mi South 9.2 mph - N/A   Clear
12:55 AM 50.0 °F 37.4 °F 62% 30.10 in 10.0 mi South 9.2 mph - N/A   Clear
1:15 AM 50.0 °F 37.4 °F 62% 30.10 in 10.0 mi South 10.4 mph - N/A   Clear
1:35 AM 50.0 °F 37.4 °F 62% 30.09 in 10.0 mi South 11.5 mph - N/A   Clear
1:55 AM 51.8 °F 37.4 °F 58% 30.09 in 10.0 mi South 11.5 mph - N/A   Clear
2:15 AM 50.0 °F 37.4 °F 62% 30.09 in 10.0 mi South 11.5 mph - N/A   Clear
2:35 AM 50.0 °F 37.4 °F 62% 30.10 in 10.0 mi South 11.5 mph - N/A   Clear
2:55 AM 50.0 °F 35.6 °F 58% 30.10 in 10.0 mi South 11.5 mph - N/A   Clear
3:15 AM 50.0 °F 35.6 °F 58% 30.09 in 10.0 mi South 11.5 mph - N/A   Clear
3:35 AM 50.0 °F 35.6 °F 58% 30.09 in 10.0 mi South 11.5 mph - N/A   Clear
3:55 AM 50.0 °F 35.6 °F 58% 30.09 in 10.0 mi South 11.5 mph - N/A   Clear
4:55 AM 50.0 °F 35.6 °F 58% 30.09 in 10.0 mi South 11.5 mph - N/A   Clear
5:55 AM 50.0 °F 35.6 °F 58% 30.10 in 10.0 mi South 12.7 mph - N/A   Clear
6:15 AM 50.0 °F 35.6 °F 58% 30.09 in 10.0 mi South 15.0 mph - N/A   Mostly Cloudy
6:35 AM 50.0 °F 35.6 °F 58% 30.09 in 10.0 mi South 15.0 mph - N/A   Overcast
6:55 AM 50.0 °F 35.6 °F 58% 30.08 in 10.0 mi South 15.0 mph - N/A   Overcast
7:15 AM 50.0 °F 35.6 °F 58% 30.09 in 10.0 mi South 13.8 mph - N/A   Overcast
7:35 AM 50.0 °F 35.6 °F 58% 30.09 in 10.0 mi South 13.8 mph - N/A   Overcast
7:55 AM 50.0 °F 37.4 °F 62% 30.09 in 10.0 mi South 13.8 mph - N/A   Overcast
8:15 AM 51.8 °F 37.4 °F 58% 30.09 in 10.0 mi South 13.8 mph - N/A   Overcast
8:35 AM 51.8 °F 37.4 °F 58% 30.09 in 10.0 mi South 15.0 mph 18.4 mph N/A   Overcast
8:55 AM 51.8 °F 37.4 °F 58% 30.09 in 10.0 mi South 12.7 mph 19.6 mph N/A   Overcast
9:15 AM 53.6 °F 37.4 °F 54% 30.09 in 10.0 mi South 11.5 mph - N/A   Overcast
9:35 AM 55.4 °F 39.2 °F 54% 30.09 in 10.0 mi South 11.5 mph 18.4 mph N/A   Overcast
9:55 AM 59.0 °F 39.2 °F 48% 30.09 in 10.0 mi South 9.2 mph 18.4 mph N/A   Mostly Cloudy
10:15 AM 59.0 °F 39.2 °F 48% 30.09 in 10.0 mi South 10.4 mph 18.4 mph N/A   Overcast
10:35 AM 59.0 °F 39.2 °F 48% 30.08 in 10.0 mi SSW 9.2 mph - N/A   Overcast
10:55 AM 62.6 °F 41.0 °F 45% 30.07 in 10.0 mi SSW 9.2 mph 17.3 mph N/A   Mostly Cloudy
11:15 AM 64.4 °F 41.0 °F 42% 30.07 in 10.0 mi SSW 9.2 mph 18.4 mph N/A   Scattered Clouds
11:55 AM 68.0 °F 41.0 °F 37% 30.04 in 10.0 mi SSW 8.1 mph 16.1 mph N/A   Clear
12:15 PM 69.8 °F 41.0 °F 35% 30.03 in 10.0 mi South 11.5 mph 17.3 mph N/A   Clear
12:35 PM 69.8 °F 41.0 °F 35% 30.01 in 10.0 mi SSW 11.5 mph 17.3 mph N/A   Clear
12:55 PM 69.8 °F 41.0 °F 35% 30.01 in 10.0 mi SSW 8.1 mph 18.4 mph N/A   Clear
1:15 PM 71.6 °F 41.0 °F 33% 29.99 in 10.0 mi South 15.0 mph 21.9 mph N/A   Clear
1:35 PM 71.6 °F 41.0 °F 33% 29.97 in 10.0 mi South 15.0 mph 23.0 mph N/A   Clear
1:55 PM 71.6 °F 41.0 °F 33% 29.96 in 10.0 mi South 17.3 mph 20.7 mph N/A   Clear
2:15 PM 69.8 °F 42.8 °F 38% 29.95 in 10.0 mi South 17.3 mph - N/A   Clear
2:35 PM 69.8 °F 42.8 °F 38% 29.95 in 10.0 mi South 15.0 mph - N/A   Clear
2:55 PM 69.8 °F 42.8 °F 38% 29.95 in 10.0 mi South 13.8 mph 19.6 mph N/A   Clear
3:15 PM 69.8 °F 42.8 °F 38% 29.95 in 10.0 mi South 8.1 mph 16.1 mph N/A   Clear
3:55 PM 69.8 °F 44.6 °F 40% 29.95 in 10.0 mi South 10.4 mph - N/A   Clear
4:15 PM 69.8 °F 42.8 °F 38% 29.95 in 10.0 mi South 12.7 mph 19.6 mph N/A   Clear
4:35 PM 69.8 °F 42.8 °F 38% 29.95 in 10.0 mi South 13.8 mph 19.6 mph N/A   Clear
4:55 PM 68.0 °F 42.8 °F 40% 29.96 in 10.0 mi South 10.4 mph 19.6 mph N/A   Clear
5:15 PM 68.0 °F 42.8 °F 40% 29.96 in 10.0 mi South 10.4 mph - N/A   Clear
5:35 PM 66.2 °F 44.6 °F 46% 29.96 in 10.0 mi South 12.7 mph - N/A   Clear
5:55 PM 64.4 °F 44.6 °F 49% 29.95 in 10.0 mi South 9.2 mph - N/A   Clear
6:15 PM 62.6 °F 42.8 °F 48% 29.95 in 10.0 mi South 10.4 mph - N/A   Clear
6:35 PM 62.6 °F 42.8 °F 48% 29.96 in 10.0 mi South 9.2 mph - N/A   Clear
7:15 PM 62.6 °F 42.8 °F 48% 29.95 in 10.0 mi South 11.5 mph - N/A   Clear
7:35 PM 62.6 °F 42.8 °F 48% 29.95 in 10.0 mi South 10.4 mph - N/A   Clear
7:55 PM 60.8 °F 44.6 °F 55% 29.94 in 10.0 mi South 12.7 mph - N/A   Clear
8:15 PM 60.8 °F 44.6 °F 55% 29.94 in 10.0 mi South 11.5 mph - N/A   Clear
8:35 PM 60.8 °F 44.6 °F 55% 29.93 in 10.0 mi South 10.4 mph - N/A   Clear
8:55 PM 60.8 °F 44.6 °F 55% 29.93 in 10.0 mi South 11.5 mph - N/A   Scattered Clouds
9:15 PM 60.8 °F 44.6 °F 55% 29.92 in 10.0 mi South 12.7 mph - N/A   Scattered Clouds
9:35 PM 59.0 °F 46.4 °F 63% 29.92 in 10.0 mi South 11.5 mph - N/A   Overcast
9:55 PM 59.0 °F 46.4 °F 63% 29.92 in 10.0 mi South 10.4 mph - N/A   Scattered Clouds
10:15 PM 59.0 °F 46.4 °F 63% 29.92 in 10.0 mi South 10.4 mph - N/A   Scattered Clouds
10:35 PM 57.2 °F 46.4 °F 67% 29.92 in 10.0 mi South 4.6 mph - N/A   Mostly Cloudy
10:55 PM 57.2 °F 46.4 °F 67% 29.92 in 10.0 mi South 4.6 mph - N/A   Overcast
11:15 PM 57.2 °F 46.4 °F 67% 29.91 in 10.0 mi South 6.9 mph - N/A   Overcast
11:35 PM 55.4 °F 44.6 °F 67% 29.91 in 10.0 mi South 5.8 mph - N/A   Scattered Clouds
11:55 PM 55.4 °F 44.6 °F 67% 29.92 in 10.0 mi South 3.5 mph - N/A   Clear